This demonstration page uses our WeatherBlox Daily Observations layout. Learn more.

Left ArrowRight Arrow

Hourly Observations for September 24, 2021

Temp ( °F °C ) Dew Point ( °F °C ) Humidity (%) Winds ( mph kmh ) Pressure ( in mb ) Visibility ( mi km ) Precip ( " mm )
12:51 am 00:51 Cloudy 71 21.7 55 12.8 57 57 E 6 9 29.89 1012 10 16 N/A
1:51 am 01:51 Cloudy 70 21.1 55 12.8 59 59 E 5 7 29.91 1013 10 16 N/A
2:51 am 02:51 Cloudy 68 20 58 14.4 70 70 E 5 7 29.91 1013 10 16 N/A
3:51 am 03:51 Cloudy 69 20.6 57 13.9 66 66 SE 6 9 29.90 1013 10 16 N/A
4:51 am 04:51 Cloudy 68 20 58 14.4 70 70 ENE 6 9 29.91 1013 10 16 N/A
5:51 am 05:51 Cloudy 67 19.4 58 14.4 73 73 E 5 7 29.93 1013 10 16 N/A
6:51 am 06:51 Sunny 67 19.4 58 14.4 73 73 N N/A 29.94 1014 10 16 N/A
7:51 am 07:51 Mostly Cloudy 70 21.1 58 14.4 66 66 SE 3 6 29.94 1014 10 16 N/A
8:51 am 08:51 Sunny 74 23.3 57 13.9 56 56 SE 5 7 29.94 1014 10 16 N/A
9:51 am 09:51 Sunny 77 25 57 13.9 50 50 S 7 11 29.94 1014 10 16 N/A
10:51 am 10:51 Sunny 79 26.1 55 12.8 44 44 SW 5 7 29.93 1014 10 16 N/A
11:51 am 11:51 Sunny 83 28.3 53 11.7 36 36 VRB 3 6 29.91 1013 10 16 N/A
12:51 pm 12:51 Sunny 85 29.4 52 11.1 32 32 VRB 6 9 29.87 1012 10 16 N/A
1:51 pm 13:51 Sunny 87 30.6 52 11.1 30 30 SSE 7 11 29.84 1011 10 16 N/A
2:51 pm 14:51 Sunny 87 30.6 50 10 28 28 VRB 5 7 29.82 1010 10 16 N/A
3:51 pm 15:51 Sunny 88 31.1 50 10 27 27 N N/A 29.80 1009 10 16 N/A
4:51 pm 16:51 Sunny 87 30.6 48 8.9 26 26 S 6 9 29.80 1009 10 16 N/A
5:51 pm 17:51 Sunny 86 30 47 8.3 26 26 S 5 7 29.81 1010 10 16 N/A
6:51 pm 18:51 Cloudy 83 28.3 47 8.3 28 28 S 3 6 29.83 1010 10 16 N/A
7:51 pm 19:51 Mostly Cloudy 81 27.2 49 9.4 33 33 WSW 3 6 29.86 1011 10 16 N/A
8:51 pm 20:51 Partly Cloudy 79 26.1 52 11.1 39 39 NW 6 9 29.88 1012 10 16 N/A
9:51 pm 21:51 Mostly Clear 76 24.4 51 10.6 42 42 NW 5 7 29.89 1012 10 16 N/A
10:51 pm 22:51 Partly Cloudy 75 23.9 51 10.6 43 43 WNW 9 15 29.88 1012 10 16 N/A
11:51 pm 23:51 Partly Cloudy 73 22.8 52 11.1 48 48 NNW 6 9 29.89 1012 10 16 N/A

Powered by AerisWeather